Theta_e
337 336 335 335 337 341 343 342 342 341 343 342 343 341 341 341 338 336 333 332 330 331 332 334 332 332 331 331 331 331 332 334 334 333 335 336 336 343 346 345 344 344 344 343 343 342 341 340 339 338 339 337 338 337 336 336 338 338 336 334 332 331 333 333 332 332 331 329 329 328 328 328 330 331 331 332 334 335 335 336 336 336 337 337 337
337 336 335 334 336 339 341 341 341 342 341 341 342 343 340 339 340 340 339 338 338 338 339 336 336 334 331 332 333 333 332 330 331 333 332 336 337 340 347 344 343 343 344 343 344 343 343 341 341 340 339 339 339 337 336 335 336 338 337 334 332 331 333 333 333 333 331 329 329 329 329 328 328 331 331 330 332 335 335 336 336 336 336 336 336
338 338 340 338 339 339 338 339 339 341 343 341 341 341 340 340 340 338 339 339 339 340 339 338 337 336 334 334 332 332 332 332 333 335 335 336 338 338 343 346 345 344 343 343 344 343 343 343 342 341 340 339 338 338 336 335 336 337 338 336 335 331 331 332 333 333 331 330 329 330 329 328 328 329 330 330 331 334 335 335 336 336 336 336 336
340 339 338 336 335 336 338 339 340 341 341 341 340 340 340 341 341 340 340 340 340 339 340 338 337 337 336 335 334 334 332 334 334 333 334 335 338 339 339 342 344 344 344 342 342 344 343 343 343 342 340 340 339 339 338 337 336 335 335 336 335 333 331 331 332 332 331 330 329 330 330 329 329 329 330 329 331 333 334 335 335 336 335 336 336
340 337 341 336 336 337 339 341 341 341 341 343 343 341 340 340 340 341 339 339 339 338 340 339 337 336 336 336 336 334 334 336 333 333 332 333 335 338 337 338 339 343 342 343 342 342 343 343 343 343 342 341 340 340 339 338 338 336 335 334 334 333 332 331 331 331 331 330 329 330 330 330 329 329 329 329 330 332 334 334 335 335 335 335 335
342 340 338 337 336 339 339 340 341 343 343 342 341 341 339 340 339 338 342 336 336 336 335 336 336 336 335 336 336 336 336 336 334 332 332 333 335 337 338 338 336 337 339 343 342 341 341 342 343 343 343 342 341 341 340 339 339 337 336 335 334 333 333 332 331 331 331 331 330 330 331 331 330 330 330 329 330 333 334 334 334 334 335 335 335
343 342 340 338 338 339 339 341 343 340 340 343 341 340 338 338 336 334 335 333 334 335 336 335 335 336 336 335 334 336 336 335 335 333 333 334 334 334 334 335 339 338 338 337 341 342 341 340 342 343 343 343 343 342 342 340 339 339 338 337 336 334 334 332 332 331 331 331 330 331 331 331 330 330 330 330 330 332 333 334 334 334 335 335 335
342 342 340 341 339 339 339 339 343 341 341 340 338 337 337 337 336 335 331 332 332 332 332 332 333 334 335 335 336 337 336 335 335 336 335 336 335 333 333 333 333 335 341 337 336 338 341 340 339 340 343 344 343 343 342 341 340 339 339 338 337 336 335 332 332 332 331 331 331 331 331 331 331 331 330 330 330 331 331 333 333 334 334 334 334
337 341 338 340 340 338 340 343 343 341 340 339 338 338 336 338 334 335 333 330 332 332 332 333 333 334 333 333 335 336 335 335 335 335 337 334 333 333 333 333 333 339 336 338 336 336 338 340 341 339 340 341 342 342 342 342 341 340 339 339 338 337 335 333 332 332 331 331 331 331 332 332 331 331 331 330 330 331 331 332 333 333 334 334 334
339 342 341 342 340 337 337 340 342 341 337 336 337 338 335 334 332 333 335 333 331 331 331 332 334 335 334 333 333 333 334 335 336 337 335 334 334 334 334 334 333 332 332 332 336 336 336 337 340 341 340 338 338 341 342 343 342 341 340 340 338 338 336 334 334 332 332 332 331 332 332 332 331 331 331 331 331 331 330 331 332 333 333 333 333
337 341 340 340 340 339 338 341 341 339 338 335 336 335 333 334 332 332 334 334 332 333 332 332 333 333 333 333 333 333 333 334 336 335 334 335 335 336 336 333 333 332 331 331 334 336 336 336 335 337 337 339 339 340 341 342 341 341 340 341 339 338 337 336 335 333 332 332 332 332 332 332 332 331 331 331 331 331 330 331 331 333 333 332 333
340 338 341 340 339 339 339 339 339 338 337 335 333 333 333 332 332 332 332 332 334 334 333 332 331 330 330 331 332 332 333 334 334 334 333 333 335 334 335 335 334 333 333 335 335 335 335 335 336 335 335 337 338 338 338 339 339 341 342 340 342 339 338 337 336 335 333 332 332 333 333 332 332 332 331 331 331 331 331 331 331 333 333 333 332
340 341 337 340 337 337 337 337 336 335 335 334 334 334 333 333 333 331 331 330 329 332 333 330 327 324 326 327 328 329 330 331 332 332 333 335 335 334 334 334 334 334 333 333 333 333 334 334 334 334 334 334 335 338 337 337 338 340 342 340 340 339 339 338 337 337 335 333 333 333 333 333 332 332 331 331 332 331 331 330 331 332 333 332 332
338 337 336 335 334 334 334 335 334 333 333 333 333 335 332 332 331 330 331 329 329 332 332 329 323 322 322 322 322 325 327 331 331 332 334 335 334 333 332 332 332 333 333 331 330 332 333 333 333 333 333 333 333 332 335 336 336 338 340 340 340 338 339 339 337 338 336 335 333 333 334 333 333 332 332 332 332 331 331 331 331 332 333 333 332
334 335 334 334 334 333 333 332 332 332 330 330 330 329 329 328 328 328 327 329 329 332 331 331 325 324 323 318 316 319 320 323 326 328 329 331 332 332 333 332 333 334 334 333 331 331 331 332 332 332 333 333 333 333 333 335 334 335 337 339 340 340 338 338 338 338 337 336 335 334 333 333 333 332 333 332 332 332 331 330 332 332 333 332 332
331 331 331 330 330 329 329 329 328 329 328 327 326 326 326 326 326 327 327 324 325 326 330 330 328 326 318 318 319 318 314 316 322 326 327 329 330 332 332 333 332 332 330 332 332 332 332 332 332 332 332 333 333 332 332 332 334 335 334 334 336 340 339 338 338 337 338 337 335 335 333 334 334 333 332 332 332 332 331 331 331 332 332 332 332
328 328 330 328 327 326 326 326 326 326 326 325 324 324 324 324 325 324 324 322 322 322 325 327 325 331 325 321 319 317 318 321 323 322 327 326 326 327 331 333 333 332 331 332 331 331 332 333 333 333 332 333 333 332 333 333 332 334 334 334 336 337 339 338 337 338 338 337 335 335 334 334 334 332 332 332 332 332 331 331 332 332 332 332 332
326 326 327 327 325 324 324 324 323 323 324 322 322 322 322 322 323 323 323 323 322 320 319 322 324 326 326 327 326 320 319 322 323 317 325 326 325 326 327 329 332 332 331 331 331 331 332 333 333 333 333 333 333 332 332 332 334 333 332 333 332 334 336 337 338 339 338 338 336 335 335 335 334 332 333 332 332 332 332 332 332 331 332 332 332
324 324 323 324 323 323 322 322 321 321 323 320 319 319 321 321 323 322 322 322 321 317 317 317 319 321 322 322 323 325 324 321 317 318 314 320 323 324 324 325 325 328 331 332 332 331 331 333 333 333 333 333 332 332 332 332 334 334 336 334 332 328 329 329 335 339 339 339 338 336 336 336 335 333 334 333 332 332 332 332 332 332 331 331 332
323 323 322 322 322 321 320 320 319 320 321 318 318 319 320 319 322 321 320 319 318 316 315 316 315 315 319 318 319 319 320 319 319 316 315 312 314 319 321 322 323 325 328 329 331 332 332 332 333 333 333 333 334 333 332 332 332 333 334 332 331 328 328 328 328 328 336 341 340 337 335 335 336 335 335 334 333 332 332 332 332 331 332 332 331
322 322 321 321 322 320 319 318 318 319 320 318 317 317 316 317 318 316 315 315 316 317 315 314 314 313 314 314 315 315 316 316 317 316 314 311 312 313 314 318 319 321 321 323 324 326 329 331 333 334 333 333 333 333 332 332 332 332 333 330 330 329 328 327 323 321 321 331 338 337 337 335 336 337 335 334 333 333 333 332 332 332 332 331 331
320 321 321 321 319 320 318 317 317 318 319 315 316 315 315 317 316 315 314 313 314 314 314 314 313 313 313 313 312 312 312 313 313 314 314 313 310 310 312 312 311 314 318 319 320 321 322 327 332 332 333 333 333 332 332 331 331 331 331 329 331 329 329 327 321 320 320 321 329 334 336 334 335 337 336 334 334 333 333 332 333 333 333 332 331
319 319 318 318 318 319 317 317 317 318 316 315 314 314 314 315 315 314 313 312 312 313 313 313 312 312 312 312 311 311 311 311 311 312 312 310 309 309 310 311 311 311 315 318 319 320 322 324 329 332 333 331 330 331 330 330 331 330 329 327 329 329 329 325 319 317 318 324 325 331 335 336 336 338 337 334 333 334 334 334 334 333 333 332 332
318 317 315 316 317 315 316 314 315 314 313 314 314 314 315 315 313 313 311 311 312 313 311 311 311 312 311 311 311 312 314 314 313 312 311 310 310 309 309 311 311 311 314 316 318 319 319 320 321 323 328 331 330 329 331 332 331 329 328 328 326 327 329 328 320 317 315 319 323 326 333 337 337 335 335 335 334 334 334 334 335 334 334 333 333
314 314 314 314 315 313 313 312 313 314 314 314 314 314 313 313 312 311 310 310 310 311 310 311 311 310 310 311 312 313 314 315 313 311 310 310 310 307 308 310 307 308 311 312 312 314 317 318 318 319 320 326 331 330 331 331 331 329 327 328 326 324 325 329 328 320 316 314 317 323 329 334 334 335 335 335 335 334 333 333 329 326 327 327 329
313 312 313 314 313 314 313 313 313 313 314 314 313 314 313 312 310 309 309 310 311 311 310 311 310 310 311 309 310 311 310 311 310 310 308 307 306 305 304 305 306 305 307 308 309 308 311 314 315 317 319 323 322 326 325 326 328 328 327 328 327 323 321 323 326 324 318 315 314 318 322 326 330 332 334 333 332 330 328 325 322 323 321 320 320
312 312 314 312 313 313 313 311 312 311 312 312 312 311 311 311 310 309 310 310 310 310 309 310 311 310 309 309 309 307 308 308 308 308 308 306 304 303 302 299 299 301 302 303 305 305 306 309 312 314 314 314 314 317 319 319 322 325 326 329 330 324 319 320 321 323 321 316 312 312 315 319 321 322 322 324 325 323 323 324 325 321 321 319 320
313 311 312 312 312 312 312 312 311 311 312 311 310 310 309 309 307 307 307 312 309 308 308 309 308 308 308 308 306 305 306 306 306 306 306 305 303 302 301 300 297 295 298 298 300 301 306 305 308 310 309 310 311 312 315 317 318 318 320 324 328 328 322 318 319 322 322 319 316 314 313 313 314 316 318 318 323 324 325 326 324 322 320 320 323
314 313 311 311 312 311 310 310 309 310 310 310 309 309 308 307 307 306 306 308 309 308 308 307 307 306 307 306 305 304 304 305 304 305 304 303 302 301 301 300 299 297 295 294 297 298 301 304 302 305 308 308 308 310 310 310 313 315 316 320 325 328 325 320 317 316 317 319 318 315 314 314 315 316 320 322 324 326 325 323 323 322 321 322 325
313 314 311 310 309 311 307 307 308 308 308 309 309 308 308 307 307 306 307 307 307 307 308 307 305 306 306 304 304 302 303 303 303 303 302 302 301 301 301 301 301 297 296 294 295 299 299 302 303 302 305 306 307 307 308 308 313 313 314 316 319 323 322 320 318 315 314 316 315 312 310 311 315 318 321 322 322 323 322 322 321 321 321 324 327
312 309 308 307 306 306 305 305 305 306 306 307 308 307 307 306 307 305 306 305 305 304 305 305 305 304 303 302 302 301 301 301 301 302 302 301 300 300 300 301 300 300 297 296 293 298 301 299 302 304 303 304 305 305 307 308 310 311 310 312 315 317 319 322 319 317 315 314 313 314 315 311 310 313 316 320 321 322 323 324 323 323 326 327 324
308 307 305 305 304 303 303 303 303 304 304 305 306 306 306 306 305 305 304 304 303 303 302 303 304 303 302 301 301 300 301 301 300 301 300 301 300 299 299 299 299 299 299 297 295 294 300 300 300 301 303 303 304 304 305 306 309 311 309 311 312 315 317 321 321 318 317 314 313 315 319 317 312 313 315 317 318 321 323 323 324 325 325 321 318
307 306 305 304 303 303 302 303 302 302 303 303 304 305 305 304 305 304 304 303 302 302 302 301 302 301 301 300 300 301 301 300 299 299 299 299 299 299 299 298 297 298 298 296 294 294 297 301 300 301 302 303 303 304 304 305 306 307 310 309 311 313 315 319 323 320 316 314 313 311 311 311 311 315 316 317 321 323 322 320 321 320 319 317 315
305 304 303 303 302 302 301 301 301 301 302 302 303 303 304 303 303 305 303 302 301 301 301 300 300 301 300 299 299 299 300 299 298 298 298 298 298 297 297 297 297 297 299 297 296 295 294 298 299 302 302 304 302 304 304 304 305 307 307 308 309 311 313 315 319 324 319 314 313 311 311 310 310 312 313 312 312 314 315 314 313 313 317 316 311
304 303 302 302 301 301 301 300 300 300 300 300 301 301 302 302 302 302 302 301 300 300 300 299 299 300 299 299 298 299 300 298 297 297 298 297 297 296 296 297 297 298 298 299 297 295 295 296 299 300 301 302 302 303 305 306 306 306 304 305 306 308 311 312 315 321 316 315 312 311 311 310 310 309 309 310 309 309 311 312 311 312 312 313 310
302 302 301 301 300 300 299 299 299 298 298 299 299 300 301 302 301 301 301 300 300 299 299 299 298 298 298 298 298 298 298 297 296 297 297 296 295 296 296 296 297 297 298 298 298 297 297 296 298 299 301 300 302 303 304 305 303 303 303 304 305 306 308 312 314 313 312 310 310 311 312 311 310 309 308 308 309 309 308 309 311 310 310 311 311
303 302 302 301 299 299 299 298 298 297 297 297 297 298 299 301 301 301 300 300 299 299 299 299 302 298 298 298 298 298 297 296 295 295 295 294 295 296 295 296 296 297 298 298 298 298 297 297 298 300 300 300 301 301 302 301 301 302 303 303 304 305 307 308 309 310 310 310 310 312 311 310 309 309 308 308 308 308 308 308 309 310 310 310 310
302 301 300 300 300 298 298 298 297 297 296 296 296 296 297 299 300 300 300 300 300 299 298 298 298 298 298 298 298 298 297 295 294 294 294 294 295 295 295 296 296 297 297 297 298 298 298 298 297 296 298 297 297 298 300 300 299 299 300 301 302 303 303 303 306 309 311 310 310 310 310 311 310 308 309 308 307 306 307 308 308 310 310 309 310
301 300 300 299 300 298 298 298 297 297 296 295 294 295 296 297 299 299 299 299 299 299 298 298 298 298 298 299 298 298 297 296 294 294 294 294 295 295 297 297 297 297 297 297 297 297 296 295 295 295 295 297 297 295 298 299 299 299 298 298 298 300 302 303 303 305 306 306 306 305 306 308 312 316 310 307 307 308 307 307 308 309 310 310 309
301 300 300 299 299 298 298 297 297 297 295 294 293 293 294 295 298 299 299 298 298 298 298 298 298 297 298 298 298 298 298 296 295 294 294 294 295 295 297 297 297 297 296 296 296 295 294 294 294 293 294 294 295 296 297 297 296 297 298 298 296 297 298 300 301 301 303 304 304 307 309 312 314 314 311 309 308 308 308 308 309 309 311 310 308
301 300 300 299 298 297 297 296 296 296 295 294 294 293 293 294 296 297 298 298 298 298 297 297 297 297 297 298 298 298 300 301 299 297 297 297 296 295 296 296 297 296 296 296 295 295 294 294 293 294 293 293 293 293 293 294 294 294 297 298 296 297 298 298 299 302 303 303 305 307 310 315 318 319 317 315 313 310 310 309 310 310 310 309 308
300 300 299 298 297 296 296 295 295 295 294 294 295 294 295 294 294 297 299 298 298 297 297 296 296 296 297 296 300 303 301 300 298 296 295 296 298 297 296 296 297 296 296 295 295 295 294 293 293 293 292 292 293 293 293 294 295 296 296 296 295 296 297 297 298 301 304 304 305 306 307 308 310 315 319 317 317 314 313 311 312 312 310 307 308
299 299 298 297 296 295 294 294 293 294 293 294 293 292 292 295 296 294 297 297 297 297 296 295 295 296 296 296 296 300 300 299 297 295 294 294 294 295 296 298 298 297 296 295 295 295 295 294 294 293 293 292 293 294 294 294 295 295 295 295 295 295 295 294 293 298 304 304 303 302 302 307 309 309 315 317 318 316 314 314 309 308 308 307 307
300 299 297 296 296 295 294 293 292 293 292 294 292 293 292 293 295 295 297 298 298 296 296 295 295 295 295 295 296 297 297 299 297 293 294 295 294 294 295 295 295 295 295 296 295 295 295 294 294 294 293 293 293 294 294 294 294 294 295 295 295 295 295 294 295 295 301 304 302 301 301 305 307 308 311 316 319 318 316 312 307 306 307 307 306
300 299 297 297 295 295 293 292 292 292 291 293 292 293 293 293 293 297 298 298 298 297 296 295 294 294 293 295 295 295 295 300 299 292 291 292 294 295 296 297 297 297 294 293 294 297 297 295 295 294 295 295 294 295 296 295 295 293 294 294 295 295 295 295 296 298 300 304 303 301 300 304 306 307 309 315 319 318 317 309 307 306 306 306 306
299 298 297 296 295 295 294 292 291 291 291 293 292 292 293 293 293 296 300 299 298 297 296 295 294 293 293 293 293 293 292 293 293 292 291 290 290 292 294 295 295 296 296 295 295 295 297 297 296 295 296 297 296 296 298 297 295 293 293 293 295 296 296 297 299 300 302 304 302 301 300 303 306 307 307 312 319 318 318 312 306 305 305 305 305
299 297 296 295 295 295 293 292 291 291 292 292 292 292 292 294 295 297 298 299 298 297 296 295 294 294 293 293 292 291 292 292 295 293 291 290 290 292 292 293 294 294 295 295 296 297 298 298 297 297 297 298 298 297 298 298 296 296 296 296 297 298 298 299 299 301 302 304 304 303 299 303 307 308 309 313 317 317 317 309 305 305 304 304 304
298 298 298 297 294 293 292 291 291 290 291 292 292 292 293 294 296 299 298 297 297 296 296 295 295 294 294 292 292 291 291 291 295 292 292 292 290 291 291 292 293 293 294 297 295 295 297 296 296 297 297 297 296 296 297 297 296 297 298 297 297 296 296 295 293 296 297 302 307 305 303 304 308 308 310 314 316 316 316 316 305 305 305 304 304
297 297 297 297 297 295 293 292 290 290 291 292 292 292 292 293 295 296 296 296 295 295 295 295 294 295 296 295 293 291 292 292 294 291 291 293 290 290 290 291 292 292 292 294 295 295 295 294 294 294 294 294 295 295 295 295 295 297 296 294 293 294 293 292 292 293 294 296 303 301 298 299 307 311 311 312 312 309 308 310 312 304 304 304 304
296 296 296 295 295 294 292 291 292 291 290 293 292 292 292 293 295 294 293 293 293 293 293 294 295 294 295 301 303 294 292 293 292 291 291 293 290 290 290 290 290 290 291 293 293 295 296 295 295 294 294 294 295 296 296 295 295 297 295 291 293 294 292 292 290 291 293 298 303 300 296 297 303 312 310 304 302 301 302 302 302 305 303 303 303
296 296 296 294 293 293 293 293 301 293 291 293 292 291 292 292 294 293 293 291 291 291 293 292 292 293 293 296 299 297 295 294 291 291 291 292 290 290 290 290 289 289 291 291 292 293 294 294 294 296 296 297 299 299 299 296 296 298 296 295 295 293 292 292 291 291 290 293 297 299 293 296 303 310 307 304 298 299 300 300 300 301 302 305 307
Wind_Speed
3 2 1 1 0 2 1 1 3 5 4 5 3 1 2 3 3 4 5 5 5 5 5 4 3 3 5 5 5 5 5 2 3 3 4 5 5 7 11 10 10 10 10 11 11 12 12 12 12 11 11 8 13 10 8 8 8 10 9 8 5 5 6 5 7 7 6 5 4 5 4 4 8 6 2 2 4 3 4 5 6 6 7 7 8
3 1 3 3 3 2 3 2 3 1 1 1 2 1 2 3 3 4 4 4 5 5 6 6 5 5 3 4 5 6 5 4 4 4 3 5 5 6 12 11 11 11 11 11 12 12 12 12 12 12 11 10 13 12 9 8 8 10 11 8 6 5 6 6 7 9 6 5 5 5 5 5 5 9 6 3 4 5 5 6 7 7 8 8 8
4 1 0 1 3 3 4 3 3 2 0 0 1 1 2 3 3 4 3 4 5 4 4 5 5 4 4 5 4 3 6 2 3 3 3 5 5 5 7 11 11 10 11 10 11 12 12 12 12 13 12 12 12 13 11 9 9 10 12 10 7 6 7 7 7 8 7 7 6 7 6 6 7 6 8 5 5 6 5 6 7 8 9 9 9
3 2 1 1 1 4 4 3 3 2 0 1 2 2 2 4 4 4 3 3 4 4 4 4 5 4 5 5 5 5 3 3 5 4 3 2 5 4 4 6 10 11 11 11 10 11 12 13 13 13 13 13 14 14 10 11 11 11 10 8 8 9 8 8 9 9 9 8 7 8 8 8 7 7 9 5 5 7 6 6 8 8 9 11 11
2 2 1 1 2 2 2 3 3 2 1 1 2 2 2 3 3 3 4 4 4 5 5 4 4 5 5 5 5 5 3 0 4 5 4 3 2 4 3 4 5 9 11 11 12 11 12 12 13 14 14 14 15 14 12 12 12 10 12 9 9 10 9 9 9 9 10 9 8 9 9 9 8 7 8 7 6 7 7 7 8 8 10 10 11
1 2 2 3 2 2 2 3 3 0 0 1 3 3 3 4 3 3 4 3 4 5 5 6 5 5 4 3 3 5 5 4 1 3 4 4 3 4 1 2 3 5 5 10 12 12 13 12 14 15 15 15 15 15 14 13 12 12 13 12 11 12 11 10 10 10 11 10 10 10 10 10 9 10 9 8 9 8 7 9 9 9 10 10 9
2 1 2 3 3 3 4 5 2 2 3 1 2 3 3 4 3 3 3 4 4 5 4 5 5 5 5 6 5 5 4 3 3 3 4 5 2 2 3 3 5 5 6 5 8 13 13 14 14 15 15 15 16 16 15 15 13 14 14 14 14 14 12 11 11 11 11 11 11 11 11 11 10 10 10 9 10 8 9 10 10 11 10 10 9
5 3 4 5 4 4 4 2 5 3 3 2 2 3 4 3 3 2 3 4 4 4 5 5 4 5 5 6 6 5 5 5 4 4 3 3 4 3 4 5 5 5 5 5 5 6 13 14 14 15 15 15 16 16 16 17 15 14 15 16 15 14 12 13 12 12 12 12 12 12 11 12 11 11 10 11 10 11 9 11 11 10 11 11 8
8 7 6 5 3 1 4 4 3 3 4 3 4 4 3 4 3 3 2 3 4 5 5 5 5 5 5 5 5 5 5 6 5 5 3 2 3 4 5 5 5 6 5 5 5 6 9 14 16 16 15 15 14 15 17 18 17 16 17 16 16 16 13 14 13 13 12 12 13 13 12 12 11 12 11 11 11 12 10 11 12 11 10 11 10
2 5 5 4 1 1 3 4 4 3 3 3 4 4 3 2 3 3 4 3 4 4 5 5 5 5 5 6 6 5 6 6 6 5 4 4 4 4 5 5 5 6 6 5 5 5 6 9 14 16 16 15 15 15 17 17 17 17 18 17 16 17 16 15 15 12 12 13 14 14 12 12 12 12 12 12 12 12 11 11 12 13 11 11 12
2 3 2 2 2 2 3 3 2 3 3 4 4 3 3 3 3 3 4 4 4 5 5 4 4 5 6 7 6 6 6 6 6 6 5 4 4 4 3 5 5 5 6 6 6 5 6 6 5 6 8 15 16 16 16 16 15 17 18 17 16 17 17 16 15 14 14 14 15 14 12 12 12 13 13 14 14 13 13 12 13 14 14 13 11
1 4 1 2 1 3 2 2 4 3 3 4 5 5 5 3 3 3 4 4 5 4 3 4 4 5 5 6 6 6 7 6 5 5 3 3 4 3 4 4 5 5 5 5 4 4 5 6 5 6 6 10 16 16 16 16 15 15 18 18 17 17 19 18 16 16 15 15 15 15 12 13 13 14 14 14 15 14 14 14 14 14 15 15 14
5 2 4 5 5 5 5 6 6 6 6 6 5 5 6 5 4 3 4 4 4 4 4 3 3 4 4 5 6 5 6 5 4 3 4 6 5 4 5 4 5 4 5 5 4 3 4 4 5 5 6 6 7 13 16 17 16 16 17 19 19 19 19 19 17 17 17 17 16 15 15 14 14 13 15 15 15 15 15 15 16 14 15 16 16
5 6 6 7 6 6 7 7 7 6 6 6 7 7 8 8 7 7 5 5 5 6 7 5 3 4 7 7 5 5 5 1 1 2 4 6 5 4 4 4 5 4 3 3 4 4 4 5 5 6 7 6 6 6 8 11 13 16 16 16 17 19 19 20 19 18 17 17 17 17 14 15 15 15 16 15 15 15 15 15 16 16 16 17 17
7 8 8 8 8 7 7 7 7 7 7 7 7 8 7 8 8 7 7 5 4 4 8 8 6 6 5 2 5 7 6 4 4 8 8 6 4 4 5 4 6 5 5 4 5 5 4 5 5 6 7 7 6 6 6 6 9 14 16 16 17 19 19 21 20 19 18 17 18 18 16 16 16 16 17 17 16 16 15 16 17 16 17 17 17
9 9 8 8 8 8 6 6 6 6 6 6 6 7 7 7 7 7 6 6 6 5 7 8 7 7 6 3 4 4 6 3 9 8 4 4 4 5 4 6 5 3 3 5 5 5 5 5 7 7 7 7 6 6 6 5 8 12 15 16 17 18 20 20 19 21 21 19 18 19 16 16 18 17 18 17 15 14 15 15 16 16 17 17 17
9 9 8 7 7 7 6 6 6 6 5 7 6 6 6 5 7 6 6 5 6 4 6 8 8 7 6 5 4 1 1 6 10 5 2 7 5 4 5 6 6 4 4 6 5 6 6 6 7 6 7 7 7 7 7 7 7 6 10 15 17 18 18 18 18 19 22 21 18 19 18 17 18 17 17 16 14 14 16 16 16 17 18 18 17
9 9 8 7 6 6 6 6 6 7 6 6 6 7 8 8 7 5 6 6 4 5 6 6 6 7 7 5 3 5 8 8 6 7 6 4 3 4 7 7 7 7 6 6 6 6 5 6 5 7 7 7 7 7 7 7 8 7 7 9 17 18 17 15 18 19 22 21 20 18 20 19 18 17 18 18 18 17 17 17 17 18 18 18 18
8 8 7 7 6 6 6 6 6 6 6 6 6 6 5 5 6 7 6 7 8 7 7 7 5 6 7 6 6 5 6 6 6 8 10 4 3 7 7 9 10 8 7 7 7 6 5 5 6 7 7 7 7 7 7 8 9 9 14 13 14 17 17 17 19 23 24 22 21 23 21 22 20 19 19 21 20 19 19 19 19 19 19 19 18
8 8 7 6 6 6 5 6 6 6 6 6 6 5 6 6 7 8 8 8 8 7 6 8 8 7 8 8 7 6 6 5 5 6 5 9 13 6 2 8 9 6 6 8 7 7 8 6 6 7 7 7 7 7 8 8 8 8 8 13 14 16 17 18 20 20 22 24 23 23 23 22 23 21 22 22 21 20 20 20 19 20 20 20 20
7 6 6 6 5 5 5 6 7 6 7 6 6 6 7 7 8 9 8 7 7 6 6 7 7 7 7 8 6 7 5 4 6 7 6 7 7 10 14 11 6 2 9 7 9 8 8 9 8 7 7 8 7 7 7 7 7 8 9 13 15 16 18 19 20 20 20 20 24 24 25 23 24 24 25 23 21 20 21 21 20 21 21 20 20
6 7 6 5 5 5 5 6 6 6 5 5 5 6 6 6 7 7 7 7 6 6 6 5 6 6 7 6 7 7 6 5 6 8 5 3 6 9 10 12 15 12 8 9 12 11 10 8 7 7 7 7 5 5 7 7 7 7 10 15 15 16 18 19 20 19 20 21 21 22 23 24 24 26 25 24 25 24 22 24 22 23 23 22 20
6 6 5 5 5 5 6 5 5 4 5 4 5 6 5 6 7 7 6 5 5 5 6 5 5 6 7 6 6 7 6 7 8 8 8 7 9 8 8 7 9 13 11 11 11 11 10 8 7 7 6 5 3 5 6 6 6 7 11 12 15 16 17 18 19 20 20 21 20 22 18 21 24 25 24 22 26 26 25 26 25 25 24 24 23
5 5 5 5 5 5 4 4 4 4 5 4 5 6 6 6 6 6 6 5 4 3 4 4 5 4 4 5 5 5 5 6 7 7 8 9 8 9 9 10 9 7 9 11 10 8 11 10 9 10 10 9 4 3 3 5 5 12 10 11 12 15 17 18 19 20 21 21 21 20 20 23 23 24 23 26 27 25 26 27 26 25 24 24 24
5 5 3 4 4 4 4 5 5 5 5 5 5 6 7 7 6 5 6 6 6 4 5 4 4 4 4 4 6 6 7 7 7 8 8 8 8 9 9 9 9 11 10 10 8 10 8 9 12 11 10 9 8 6 5 5 4 7 12 9 14 17 20 20 19 19 21 21 21 21 21 25 29 27 24 24 26 26 27 26 25 23 23 22 22
5 4 3 3 3 4 4 5 5 5 5 6 6 7 7 6 5 5 5 5 5 5 5 3 4 4 6 7 8 9 9 9 9 8 8 9 9 10 10 9 9 10 9 9 10 11 7 9 10 10 9 10 11 11 12 13 12 14 15 11 9 13 15 18 20 20 21 22 21 21 23 25 25 23 23 23 22 21 24 23 22 22 21 21 21
6 3 4 4 3 4 4 4 4 5 5 7 7 7 6 6 5 5 5 4 5 6 7 6 8 8 9 8 8 9 8 8 8 8 8 9 9 10 10 12 11 9 9 8 8 8 11 10 10 10 10 12 12 12 13 13 14 19 20 13 10 12 13 16 19 20 20 22 22 22 23 23 23 22 24 17 20 22 20 18 19 19 20 20 21
4 4 2 3 3 4 4 6 6 6 6 6 6 6 5 5 4 5 5 4 5 6 6 7 9 8 7 8 9 9 8 8 8 8 8 8 9 8 8 8 10 12 10 10 8 8 9 12 11 7 12 12 12 11 14 15 13 21 20 13 11 10 14 15 17 21 21 20 22 23 23 23 20 21 25 22 18 20 21 21 19 21 22 21 22
3 3 3 4 4 5 6 6 6 6 5 4 4 4 4 3 4 4 5 5 4 6 6 8 8 8 8 10 9 8 8 8 8 8 8 8 7 7 6 8 9 8 10 12 11 12 11 9 10 10 9 11 11 11 12 12 15 17 13 13 13 11 13 15 15 16 19 20 21 23 24 23 23 23 22 21 20 20 22 22 22 22 23 23 23
3 3 4 6 6 7 6 6 6 7 6 5 4 4 3 4 4 6 6 6 8 8 8 9 9 8 9 10 9 8 8 9 9 9 8 8 7 7 7 7 6 8 8 10 12 9 10 8 6 11 11 13 11 11 11 12 15 18 14 14 13 13 17 18 18 18 19 21 21 21 23 25 25 26 22 19 20 19 21 23 25 24 21 26 26
4 6 6 6 7 7 6 7 7 7 7 6 6 5 4 6 7 8 8 8 9 9 8 9 8 9 9 9 8 7 7 7 7 7 8 8 8 7 8 7 7 7 9 9 11 8 7 12 11 9 11 14 14 12 11 11 14 17 14 13 13 18 23 17 19 19 19 21 22 21 22 23 23 25 25 23 25 25 21 24 25 23 25 23 24
6 7 7 7 7 8 8 8 7 7 7 6 6 6 6 6 6 7 8 9 9 9 8 8 7 8 8 8 8 7 7 6 7 7 7 8 8 7 8 8 8 8 8 9 10 14 10 11 11 14 14 14 14 13 14 11 12 17 12 12 15 19 14 12 16 19 20 21 22 23 24 23 22 23 24 24 24 26 24 21 23 26 25 25 25
6 7 7 8 8 9 9 8 7 6 7 7 7 6 6 6 7 7 8 8 8 7 7 8 7 7 7 9 8 9 8 7 7 6 7 8 8 7 8 8 9 9 10 10 11 13 11 9 10 12 14 13 12 12 15 13 13 12 14 12 12 12 12 12 13 16 18 21 23 22 22 22 20 24 22 23 25 28 26 24 23 24 24 23 22
8 9 9 8 8 9 8 8 7 7 7 8 8 6 6 7 7 6 7 6 7 7 7 8 7 7 7 8 8 7 7 7 8 8 8 8 9 9 9 9 9 9 8 8 10 11 15 12 11 9 10 11 13 13 13 13 13 13 14 14 12 10 11 12 12 13 18 19 23 21 22 23 21 21 23 24 24 24 25 23 22 23 24 23 25
8 9 9 10 9 9 8 8 7 7 8 7 7 7 6 6 7 7 6 7 8 9 9 9 8 6 6 6 8 7 7 8 8 8 9 10 11 10 11 8 8 8 9 10 10 11 13 12 10 12 11 12 12 14 14 12 12 12 14 14 13 12 10 11 11 10 17 19 19 20 23 23 23 23 23 24 25 25 24 24 25 24 25 26 25
10 9 10 10 9 8 8 8 8 7 7 7 7 6 7 6 7 7 7 8 8 8 8 7 7 6 6 8 8 9 8 9 9 9 10 9 8 8 8 8 8 10 9 9 10 11 11 12 10 11 10 12 11 12 13 12 13 12 11 13 13 12 12 11 12 13 14 20 23 22 25 23 24 24 23 24 24 25 25 25 25 24 25 26 25
8 9 9 9 9 8 8 7 7 7 6 6 6 7 6 6 5 7 7 7 7 7 7 6 6 6 6 8 8 8 9 10 10 10 9 9 7 6 7 7 7 8 8 9 11 10 10 12 11 9 10 11 11 12 13 14 14 12 11 11 12 13 12 12 12 12 17 19 18 21 19 23 24 24 24 24 24 25 26 26 26 25 26 26 26
9 9 9 8 8 8 7 6 6 6 5 5 6 5 6 6 5 5 6 6 6 6 5 6 6 6 6 7 8 9 10 11 10 9 8 8 8 8 7 7 7 7 8 9 9 10 11 10 12 14 11 13 12 11 14 14 15 15 13 11 11 10 12 13 10 7 9 11 12 14 18 17 20 24 23 23 25 26 26 27 27 27 26 27 27
9 9 9 9 8 7 6 6 5 4 5 5 6 7 6 6 5 5 7 6 5 4 5 6 6 7 6 6 7 9 9 10 9 8 9 9 8 10 8 10 9 10 7 8 11 12 11 12 11 11 12 11 11 13 12 13 14 11 14 16 15 11 9 8 13 11 9 12 15 19 18 18 20 17 20 24 25 26 26 26 27 28 27 26 26
9 9 9 9 7 6 6 5 4 4 5 6 6 6 5 5 4 4 6 5 5 5 6 7 7 7 6 6 5 8 8 8 8 7 6 7 7 8 8 8 9 9 10 10 10 10 11 12 12 13 11 12 12 11 11 13 13 12 10 12 16 15 14 12 10 12 14 11 13 13 13 15 15 20 24 24 26 26 26 26 28 27 28 27 27
9 10 9 8 7 6 6 5 6 6 7 6 5 4 4 5 3 3 4 5 5 6 6 7 7 6 5 5 5 7 10 13 14 11 10 8 6 6 8 6 8 8 10 9 7 9 10 11 13 12 12 13 12 13 14 12 12 14 14 14 14 13 14 15 14 11 10 12 11 11 12 9 11 9 9 10 12 21 22 26 22 28 28 27 27
9 9 9 8 7 6 6 6 6 6 5 4 5 6 4 2 2 2 2 5 5 6 7 7 6 6 4 4 6 14 11 11 12 13 13 14 13 9 6 5 6 7 9 7 7 7 9 12 12 13 13 13 14 15 15 14 13 13 13 14 15 15 14 15 15 10 8 9 9 11 11 10 11 13 10 10 12 14 11 13 14 17 23 27 27
10 9 8 8 7 6 6 6 5 4 4 3 5 6 7 7 3 2 1 5 5 6 6 7 6 5 4 4 4 7 7 8 9 13 12 13 12 13 12 10 7 5 7 9 9 7 9 9 11 13 12 12 15 15 14 14 13 12 11 11 13 13 13 14 16 16 5 3 8 11 15 12 9 12 11 10 12 8 11 12 20 24 24 27 29
9 9 9 8 7 6 6 6 5 4 4 8 10 10 9 8 5 1 0 5 5 5 5 6 5 4 4 3 4 4 5 7 6 8 10 12 13 13 13 11 10 9 5 5 8 8 10 10 10 12 11 11 12 13 12 13 13 13 11 12 13 13 14 14 13 13 13 8 11 12 15 14 9 10 12 11 11 10 12 16 21 23 24 25 25
8 8 7 7 6 6 6 6 5 5 4 9 10 11 11 10 8 3 1 6 6 6 5 5 5 4 4 4 4 4 4 10 7 6 7 9 12 14 14 12 10 11 10 9 7 6 7 9 10 13 13 13 12 14 15 16 14 14 13 12 11 13 12 13 12 13 16 10 10 12 15 15 10 9 12 13 11 10 12 16 20 21 24 25 26
9 8 8 8 6 5 5 5 5 5 5 7 10 11 12 11 10 6 2 6 6 6 5 4 4 3 2 4 5 6 6 5 4 7 8 8 8 9 9 8 8 9 10 10 10 10 8 8 10 12 13 13 13 14 16 13 14 14 15 14 12 14 13 13 16 15 16 11 10 12 14 15 10 9 12 13 9 10 10 14 20 20 22 24 24
8 9 8 7 6 5 4 4 5 5 4 9 12 13 13 12 12 8 4 5 6 5 4 4 3 2 1 4 4 5 6 7 7 9 7 8 8 8 8 9 9 8 7 7 8 7 7 7 8 10 12 12 12 14 12 11 13 12 12 13 14 13 14 14 12 11 13 10 11 11 12 14 10 8 12 10 7 9 9 11 17 20 21 22 23
7 7 6 7 7 6 4 4 5 5 6 11 13 14 14 13 13 7 7 7 5 3 4 2 2 0 1 4 5 6 6 7 12 15 11 8 7 8 9 9 9 8 7 8 12 12 9 7 8 10 10 12 14 14 13 12 12 12 12 11 11 13 15 13 14 13 12 11 10 10 10 13 10 8 12 6 5 8 7 7 13 19 20 21 22
8 8 7 6 5 5 4 4 4 4 5 10 14 15 15 14 10 7 7 7 6 5 1 2 1 0 2 4 4 5 6 8 13 16 14 10 7 8 8 9 9 8 9 9 13 16 15 14 14 14 16 16 16 18 17 18 16 15 12 13 15 15 14 14 14 13 13 12 6 7 11 11 8 8 11 2 1 3 6 5 2 13 18 19 20
8 7 7 6 4 4 4 4 4 5 5 8 12 13 14 13 9 7 6 6 6 6 4 1 1 2 4 10 8 5 7 8 14 16 16 9 8 7 7 9 9 9 10 10 8 10 15 16 15 15 16 16 16 16 16 18 19 17 13 15 15 14 14 12 15 14 14 10 4 11 10 10 10 8 4 2 6 6 7 6 8 7 4 13 16
8 7 7 6 5 4 4 3 5 5 4 5 8 10 11 11 8 6 6 6 6 6 5 4 4 4 5 6 11 10 8 12 16 15 16 10 7 6 6 6 9 10 11 11 10 11 12 12 12 11 11 13 12 11 13 18 19 19 14 14 13 14 15 13 14 15 14 10 9 12 12 8 8 3 4 3 5 1 6 6 9 8 8 5 3
Wind_Direction
73 61 91 68 266 331 288 245 190 200 193 203 212 166 183 189 194 208 222 236 234 241 236 251 274 251 230 239 231 228 220 225 277 273 151 168 177 191 187 185 189 195 199 204 209 210 212 214 210 214 218 199 182 191 202 213 207 211 216 221 230 200 198 226 234 236 236 250 237 226 217 230 190 185 170 269 183 184 185 172 166 159 147 144 136
77 27 51 353 341 322 310 350 342 350 300 285 294 302 326 335 330 336 325 319 330 319 333 331 329 332 307 264 276 274 253 229 243 269 155 174 180 188 191 188 191 197 201 208 214 218 218 218 217 217 220 189 185 190 201 207 212 209 223 228 214 197 185 222 239 236 242 244 222 218 221 229 225 196 183 240 226 187 200 182 174 164 150 142 139
114 106 40 358 315 317 322 333 338 312 161 297 329 360 331 319 296 288 295 309 299 295 316 323 317 317 326 324 308 282 269 243 222 204 162 165 182 189 198 193 193 194 206 210 217 222 224 225 224 218 219 202 197 196 195 199 209 218 224 227 189 196 209 206 227 236 233 233 211 221 220 217 233 224 196 201 245 206 189 201 177 172 160 149 143
110 151 184 254 309 302 311 323 279 285 39 21 334 332 314 300 306 296 282 285 292 301 301 305 309 302 314 314 315 323 297 265 253 259 242 162 173 191 193 201 200 200 204 211 221 227 229 231 229 223 221 218 213 221 223 197 210 225 231 224 181 188 213 216 220 235 240 237 223 222 229 214 215 234 204 196 240 203 196 202 190 175 167 157 147
148 174 187 231 256 287 305 294 298 288 290 292 305 312 337 321 314 318 325 325 325 317 314 311 308 307 309 301 317 316 330 294 260 286 286 274 196 182 174 196 202 210 210 213 218 223 230 236 237 232 225 224 223 225 235 227 223 226 226 220 201 204 218 218 225 234 237 236 228 224 227 221 215 211 204 209 233 221 190 203 199 179 172 163 153
208 222 205 244 284 331 303 288 301 330 13 328 355 349 344 336 302 341 321 331 319 304 310 306 291 295 297 295 305 302 313 328 293 241 252 260 257 80 127 217 203 211 223 225 223 222 226 231 237 238 232 228 229 231 239 237 226 221 219 212 209 211 225 217 221 230 231 236 228 225 224 223 216 211 208 213 227 222 186 197 199 192 175 169 157
315 32 41 62 38 353 360 338 321 35 13 360 13 316 314 289 285 308 306 314 303 298 296 286 286 290 289 297 291 286 299 292 294 249 236 241 194 160 169 191 201 205 214 219 231 230 227 229 232 236 237 234 233 236 236 240 230 215 216 217 218 213 212 210 212 225 227 231 229 223 225 225 221 214 209 211 219 202 190 198 198 195 183 170 160
349 13 48 28 29 22 334 5 291 26 5 3 354 318 297 288 289 266 318 311 322 313 311 306 301 290 286 286 279 280 281 280 275 268 228 184 200 196 211 233 237 229 214 220 224 229 231 230 232 236 237 238 237 237 237 237 237 224 223 224 221 215 196 202 207 219 222 226 230 223 221 224 220 215 210 210 212 204 204 198 202 202 191 170 169
6 6 14 358 346 18 336 294 359 19 26 3 344 318 322 311 326 328 319 292 314 308 311 308 302 292 289 289 279 277 274 265 263 255 251 215 215 229 229 230 234 235 229 217 223 224 228 229 231 233 236 236 237 237 236 238 239 232 230 228 221 220 203 198 206 220 225 224 227 223 221 222 218 215 210 204 204 206 206 206 203 203 197 175 173
12 339 7 304 32 44 345 335 350 9 14 353 316 322 330 23 3 345 348 333 315 306 300 299 301 301 301 294 290 280 268 263 254 256 255 262 258 238 225 212 212 224 231 234 227 222 226 233 234 234 234 234 234 236 236 240 243 234 233 232 225 218 212 202 207 215 226 226 223 223 220 221 218 215 212 203 200 207 208 216 204 205 204 186 175
344 340 16 320 1 343 333 307 311 359 343 329 319 325 344 18 40 339 336 318 293 287 285 291 303 301 294 289 287 280 274 266 262 261 256 252 248 239 204 215 222 229 228 236 234 215 219 220 222 227 232 232 232 233 237 239 241 238 237 234 233 227 218 217 214 200 213 219 221 222 217 217 216 214 214 208 203 206 211 215 212 205 205 196 188
351 316 280 295 325 314 312 329 338 349 356 351 348 348 353 10 355 351 340 330 320 301 314 324 308 304 299 297 283 284 282 268 260 251 261 263 248 237 241 248 237 246 234 219 209 195 211 216 218 218 225 230 231 233 237 238 238 238 238 237 228 230 217 216 219 211 206 214 216 222 213 214 219 213 214 211 209 207 212 213 216 211 204 199 197
234 191 43 30 25 6 11 14 17 20 17 11 358 6 10 9 351 358 350 343 323 326 327 320 335 315 295 285 294 288 280 281 268 281 277 268 264 257 259 261 251 242 238 219 215 206 222 223 211 218 226 226 231 232 233 234 233 233 237 241 236 230 219 219 220 216 205 207 211 219 217 213 214 215 216 213 210 210 213 212 213 213 203 203 199
63 50 46 34 27 27 28 24 24 18 16 15 17 14 13 19 16 11 2 1 345 349 337 342 358 343 328 326 312 313 304 29 91 360 300 285 278 268 266 255 260 255 245 223 236 220 210 225 230 230 233 232 224 223 232 234 234 233 234 240 243 239 221 221 220 218 213 207 210 215 211 213 215 213 216 216 214 212 213 212 211 209 205 202 200
59 52 42 32 31 30 28 25 24 18 17 20 22 23 21 24 20 20 356 2 347 343 354 9 342 317 295 333 335 347 338 355 359 341 316 296 289 276 269 258 257 243 213 219 241 241 220 222 230 230 238 237 224 220 222 224 224 224 229 234 238 240 238 232 224 225 222 209 204 212 211 205 213 215 218 217 213 214 214 213 209 208 204 202 196
53 49 47 41 36 33 27 27 23 24 30 31 27 26 20 22 18 18 19 12 0 343 8 6 3 350 0 342 286 325 332 354 330 315 306 352 332 294 296 283 273 253 228 226 235 231 235 225 231 227 226 230 223 221 229 220 224 227 228 230 231 235 238 240 235 229 226 221 206 210 208 203 206 213 217 218 215 212 211 213 210 208 200 198 197
50 48 47 44 37 34 31 22 21 18 30 34 30 21 23 21 19 17 21 17 2 349 0 9 2 32 10 345 335 345 11 318 324 284 360 339 320 331 317 304 286 272 254 254 244 241 236 228 229 231 232 232 229 222 226 235 236 231 228 228 228 228 231 231 237 236 234 226 222 208 205 204 206 209 215 218 211 210 208 211 210 205 203 199 198
49 44 43 41 34 29 30 27 26 25 32 35 29 24 21 21 13 11 14 15 11 12 5 5 355 27 20 27 347 318 331 328 325 325 340 256 314 348 327 346 329 303 279 270 259 250 238 239 229 233 230 224 227 229 226 229 231 231 229 224 222 225 224 215 229 240 241 237 226 221 210 202 199 201 208 215 214 210 206 210 209 208 205 204 200
50 51 42 35 31 25 31 31 32 34 33 32 26 23 15 15 10 17 17 18 23 28 16 0 352 21 3 8 0 358 353 348 350 332 337 339 28 345 356 355 342 324 305 290 285 284 272 251 245 237 241 230 223 228 231 232 231 230 231 226 220 221 221 215 222 231 238 236 236 226 217 207 196 200 203 210 213 210 206 209 209 208 207 208 205
56 47 42 34 33 30 33 32 30 28 32 24 17 16 17 4 20 34 34 32 29 28 15 14 16 359 357 6 4 3 1 3 22 6 317 327 325 340 338 344 331 325 344 328 317 306 295 271 251 249 241 243 230 223 226 228 230 233 234 230 220 218 219 218 220 227 235 241 236 239 230 216 207 199 202 205 208 208 207 208 208 209 207 209 208
61 56 47 38 32 29 32 35 28 26 31 25 20 24 22 26 35 42 38 33 30 26 32 20 18 12 3 8 4 5 359 2 9 3 354 324 317 338 333 333 321 326 346 337 333 323 304 285 264 250 246 243 238 229 224 221 224 223 228 227 224 217 216 219 221 223 226 235 244 240 235 223 217 209 208 206 205 206 205 206 206 208 208 206 209
61 49 38 30 28 26 36 41 40 33 32 27 26 20 19 36 47 50 43 40 26 32 36 25 25 15 17 6 9 356 6 8 15 1 349 11 339 331 338 338 335 330 340 337 329 321 314 304 282 265 259 254 265 257 232 226 223 221 226 223 223 220 216 216 219 221 222 227 234 243 246 232 222 217 211 210 206 206 207 207 205 206 207 205 204
73 53 44 37 33 39 42 41 41 34 29 29 29 22 22 42 50 47 39 37 26 33 30 33 31 23 17 10 7 6 6 3 2 3 358 347 340 335 331 334 319 316 328 328 321 312 310 324 327 308 295 310 278 322 332 317 307 277 260 239 230 226 221 218 217 219 222 223 227 235 239 248 235 225 212 213 214 207 208 208 208 207 206 205 202
67 60 43 41 47 42 40 38 33 29 27 32 29 30 36 48 50 41 26 14 10 35 36 42 35 28 26 7 354 348 357 9 7 3 3 352 342 331 329 329 317 313 320 323 318 330 335 330 348 358 350 330 44 268 306 306 300 302 290 265 250 243 236 227 220 217 220 222 220 228 223 233 251 245 219 207 216 214 209 210 210 208 207 204 202
50 49 32 57 65 52 39 33 30 27 35 36 27 33 42 49 49 35 20 15 4 11 30 38 38 32 12 347 356 3 14 13 19 19 12 358 351 342 341 341 329 326 332 337 332 334 325 347 351 344 343 348 3 8 343 318 289 273 286 277 252 238 235 236 227 220 220 221 220 215 225 224 225 241 234 217 211 215 215 211 211 209 206 204 204
65 50 48 50 64 61 50 44 42 37 40 38 36 38 46 53 44 29 13 5 11 23 18 17 23 15 12 14 29 28 26 21 21 22 14 8 4 359 344 338 336 327 323 330 330 331 335 346 338 337 343 9 1 357 352 335 332 312 297 292 268 245 244 238 236 229 223 224 222 218 217 224 226 234 246 228 217 216 219 212 210 206 204 201 203
79 67 47 47 59 63 62 58 47 42 44 48 44 45 45 47 33 21 10 12 19 18 14 19 25 26 35 38 41 33 25 21 19 18 19 20 12 3 357 344 338 333 327 324 323 327 327 324 338 337 356 351 351 349 339 334 324 324 318 303 291 264 243 241 241 238 228 224 223 222 221 221 221 215 242 248 215 217 214 223 210 209 207 204 203
98 92 72 68 69 62 51 53 46 40 47 57 55 53 48 49 31 19 22 7 23 23 24 37 35 31 37 45 43 33 20 23 19 15 21 21 15 6 358 353 342 331 332 325 328 315 339 328 328 349 345 341 337 336 330 328 326 323 318 309 298 279 266 259 249 242 235 226 226 225 223 223 224 215 222 235 226 213 209 215 217 212 205 206 205
103 117 93 58 62 67 58 57 50 40 45 57 62 63 59 47 32 19 11 360 20 27 36 42 33 29 35 44 43 32 18 19 19 15 15 17 14 0 357 354 346 331 331 325 322 324 330 344 332 327 342 333 330 331 329 324 317 314 311 310 307 294 272 256 249 247 247 241 230 228 227 222 220 220 219 221 225 219 210 206 213 216 209 206 206
113 90 82 70 59 57 59 55 49 41 36 29 38 47 49 32 20 18 20 32 39 33 36 41 31 28 40 45 38 34 18 22 17 13 14 10 4 358 352 350 343 337 329 320 312 318 318 327 323 317 331 332 331 326 325 316 319 323 322 319 313 307 284 264 257 251 247 244 240 232 228 225 220 221 218 214 223 226 213 207 210 218 211 206 207
76 70 68 70 65 55 54 52 47 41 34 31 30 33 35 40 34 38 37 45 48 45 38 40 36 35 42 43 37 34 16 27 15 16 13 7 3 354 350 350 343 338 332 321 311 313 335 321 321 327 325 323 323 317 316 320 318 319 315 311 309 309 306 284 263 251 247 246 240 235 229 229 223 222 222 218 217 225 221 215 211 211 215 213 211
81 78 72 68 65 60 53 51 46 38 31 24 24 27 33 41 44 47 47 53 51 47 45 41 39 36 39 37 35 27 17 22 17 14 11 6 1 354 353 352 349 346 340 330 316 311 326 323 321 316 320 318 314 316 317 312 311 311 312 311 310 310 307 301 281 258 249 247 244 237 234 228 223 223 222 220 219 222 222 220 211 212 210 207 210
78 74 73 69 64 62 58 51 45 36 30 21 13 20 41 45 46 53 54 57 59 55 51 47 42 39 39 37 31 23 13 20 12 9 6 2 358 358 356 355 354 351 347 337 325 317 316 320 316 318 317 317 314 315 311 312 312 314 314 310 309 310 308 305 300 276 252 245 245 240 238 235 224 225 222 223 221 222 221 218 211 208 209 208 208
78 72 68 65 66 64 60 51 42 34 27 24 15 12 36 49 50 54 56 51 55 54 51 47 39 37 37 42 28 20 14 15 8 5 2 1 359 358 0 358 356 350 343 330 328 322 320 324 318 312 314 319 310 313 310 310 314 315 316 317 315 312 311 311 308 304 278 248 245 239 235 233 229 223 219 220 222 220 218 218 212 209 210 207 206
75 73 70 68 65 66 63 52 42 34 29 26 17 22 14 54 59 58 52 54 57 54 51 47 40 33 35 34 26 20 15 11 8 3 7 7 2 2 2 356 344 333 328 329 321 321 317 313 307 318 324 321 315 316 315 315 316 321 318 316 316 311 305 303 303 310 318 303 275 252 241 235 229 224 220 218 218 219 218 215 212 209 206 204 206
84 77 72 68 66 65 65 57 45 39 31 23 21 19 25 34 62 59 56 60 60 55 53 50 41 30 31 33 29 20 14 12 8 10 12 8 6 3 350 338 332 329 324 320 320 313 312 311 318 321 324 322 321 319 320 317 317 315 312 308 305 303 306 312 319 318 311 308 305 284 256 238 229 227 223 220 217 217 217 216 214 210 208 207 205
80 83 79 73 70 64 64 60 53 44 33 25 23 22 23 28 38 62 65 65 62 59 54 48 42 34 34 42 30 18 18 16 15 16 7 4 358 350 340 333 330 325 321 322 316 308 308 311 316 323 323 322 321 318 321 322 321 314 310 306 309 312 315 315 309 304 305 305 305 310 290 258 240 228 224 220 218 218 217 217 216 211 209 206 205
84 82 81 76 70 69 63 61 58 49 36 29 29 25 25 24 25 59 68 67 65 62 55 47 41 34 43 43 31 21 24 24 16 8 2 357 352 349 332 328 320 308 307 303 311 319 323 325 328 325 328 326 323 321 324 325 322 319 314 307 300 302 308 305 296 293 304 308 310 307 303 292 259 241 226 220 220 217 216 217 217 214 209 204 204
91 86 82 80 74 71 67 61 56 47 38 32 30 23 22 19 22 63 72 70 67 60 52 48 41 40 43 41 33 25 29 25 18 8 356 352 352 348 348 350 348 346 324 323 341 343 342 336 329 325 321 320 319 316 322 320 314 311 313 317 312 308 296 297 303 302 300 297 290 282 280 277 273 254 233 225 219 217 216 216 217 216 213 210 204
86 86 83 83 77 71 68 64 53 49 40 36 27 21 18 13 15 46 84 82 76 65 56 46 41 40 38 31 32 28 28 29 22 9 2 351 343 345 346 347 352 354 358 354 348 344 345 342 336 332 329 322 321 314 313 317 315 313 315 312 308 313 311 306 295 300 303 297 293 298 289 284 275 258 239 224 219 217 216 216 216 217 213 210 207
87 83 80 77 77 72 62 55 47 39 38 27 18 10 7 12 8 19 90 93 84 74 60 51 41 39 40 23 19 29 24 27 22 13 3 356 353 343 335 338 352 355 358 346 342 342 339 339 337 334 330 332 329 326 325 324 320 316 316 313 305 302 303 301 297 289 281 287 293 286 286 298 298 274 236 231 226 221 219 215 216 216 215 213 207
91 87 82 76 71 67 60 50 47 40 32 17 7 8 17 2 355 350 97 104 94 84 72 61 47 37 31 19 9 15 9 18 18 11 5 357 351 348 319 332 350 353 355 334 334 336 337 336 335 332 329 327 328 329 324 320 316 312 310 311 304 305 301 296 292 282 282 279 285 294 297 299 299 295 264 237 232 213 214 209 215 215 216 214 210
95 95 89 83 76 66 60 53 43 40 25 5 358 37 30 23 23 7 53 104 94 88 82 74 64 51 21 7 351 353 349 358 4 3 355 355 345 341 335 342 339 344 353 354 349 325 338 330 328 327 321 315 321 321 320 322 318 314 310 303 299 301 302 306 307 307 266 241 293 294 293 291 294 290 282 252 240 214 208 211 207 212 213 213 213
101 98 94 90 84 72 64 57 47 29 16 359 14 25 31 24 18 340 268 110 100 92 90 80 77 71 40 9 344 338 339 351 3 355 346 342 343 336 327 331 330 333 332 339 343 341 345 336 328 327 319 316 315 318 319 322 321 315 307 306 302 296 295 294 294 288 293 311 290 290 284 286 281 272 276 258 240 224 215 213 208 208 211 212 210
103 99 98 95 89 79 64 57 45 28 24 2 17 21 19 18 15 23 13 104 106 104 97 91 81 70 55 24 349 337 338 347 352 351 346 338 335 332 325 323 323 324 322 325 327 320 325 337 335 330 333 326 319 324 320 320 317 313 315 312 304 298 292 286 281 287 286 289 282 275 277 279 281 272 268 258 239 225 220 215 210 206 210 211 206
98 99 94 89 86 78 71 64 52 37 31 1 26 26 22 17 16 22 96 102 111 110 108 102 98 98 73 46 16 351 341 344 345 357 344 340 335 330 331 328 322 316 311 313 322 326 329 336 334 331 327 328 322 317 318 319 319 320 314 309 303 298 298 292 294 286 282 281 269 274 274 274 268 260 261 261 235 224 219 211 206 208 210 213 212
107 110 110 101 92 85 76 64 59 45 21 19 35 32 28 27 27 28 56 83 108 113 111 117 128 127 63 40 25 1 348 346 346 4 350 339 333 331 329 330 326 318 312 310 316 317 318 326 328 322 321 321 318 318 316 319 319 309 305 304 306 305 304 298 290 284 283 273 254 251 264 270 259 249 255 252 226 221 215 209 199 206 210 211 211
87 90 92 100 99 93 86 75 67 47 27 28 38 36 36 38 44 38 45 50 46 76 115 126 129 160 41 21 22 360 355 346 346 353 358 343 338 336 334 330 329 325 322 313 307 304 300 304 314 319 318 313 314 320 322 326 328 324 318 317 324 334 329 327 323 317 302 301 279 260 272 269 261 242 263 252 210 221 208 204 197 204 209 211 211
91 88 95 96 108 106 92 79 73 56 38 27 38 39 38 39 46 37 36 34 34 28 2 141 138 50 344 2 4 3 352 346 347 348 355 353 345 343 339 335 331 332 336 335 325 319 316 309 313 319 319 322 325 330 332 336 339 338 337 343 349 337 329 328 323 322 310 303 295 19 318 296 272 239 253 283 36 26 14 14 348 207 208 209 212
99 101 97 89 91 113 115 100 89 76 50 32 41 40 40 39 51 50 38 38 24 22 355 329 85 359 339 2 353 1 352 345 344 346 348 360 348 344 344 339 339 344 344 342 332 328 326 321 323 327 331 330 331 331 337 346 348 353 350 349 339 334 335 335 327 323 311 302 18 358 318 280 286 254 203 89 81 34 19 14 18 22 244 219 216
118 116 110 111 114 114 137 141 98 83 65 40 42 46 44 40 44 47 45 42 29 5 358 343 3 4 353 343 349 350 350 342 345 346 345 358 348 347 343 343 348 349 343 337 332 330 335 338 333 334 334 337 340 340 343 347 354 359 356 345 337 341 334 335 330 327 328 331 335 340 320 296 302 300 123 145 73 82 40 14 28 28 23 22 214